Latest Weather Observations for Kempsey Airport

IDN60801

Issued at 2:05 pm EDT Saturday 1 November 2014 (issued every 30 minutes, with the page automatically refreshed every 10 minutes)

About weather observations | Map of weather stations | Latest weather observations for NSW | Other Formats
Station Details ID: 059007 Name: KEMPSEY AIRPORT AWS Lat: -31.07 Lon: 152.77 Height: 13.0 m
Data from the previous 72 hours. | See also: Recent months for locations in New South Wales
Date/Time
EDT
Temp
°C
App
Temp
°C
Dew
Point
Rel
Hum
%
Delta-T
°C
Wind Press
QNH
hPa
Press
MSL
hPa
Rain
since 9 am
mm
Dir
 
Spd
km/h
Gust
km/h
Spd
kts
Gust
kts
01/02:02pm 36.0 30.2 10.9 22 14.8 NNW 32 52 17 28 1002.9 1002.8 0.0
01/02:00pm 35.6 30.5 11.9 24 14.2 NW 30 43 16 23 1003.1 1003.0 0.0
01/01:31pm 35.9 29.3 11.5 23 14.5 NW 37 56 20 30 1003.7 1003.6 0.0
01/01:30pm 35.6 28.6 11.3 23 14.4 NW 39 56 21 30 1003.7 1003.6 0.0
01/01:00pm 34.3 31.8 14.2 29 12.4 N 20 32 11 17 1004.5 1004.4 0.0
01/12:30pm 32.9 28.9 13.0 30 11.9 NNW 26 39 14 21 1005.3 1005.2 0.0
01/12:00pm 31.1 26.3 11.5 30 11.4 NNW 28 43 15 23 1006.0 1005.9 0.0
01/11:57am 31.3 26.3 11.1 29 11.7 N 28 43 15 23 1006.0 1005.9 0.0
01/11:30am 30.0 27.8 14.5 38 9.4 N 19 24 10 13 1006.9 1006.8 0.0
01/11:00am 28.5 26.0 13.6 40 8.9 N 19 26 10 14 1007.7 1007.6 0.0
01/10:30am 27.6 24.4 14.3 44 8.0 N 24 33 13 18 1008.3 1008.2 0.0
01/10:00am 27.4 25.6 14.4 45 7.8 NNE 17 24 9 13 1008.6 1008.5 0.0
01/09:30am 26.8 25.5 14.9 48 7.2 N 15 26 8 14 1009.1 1009.0 0.0
01/09:00am 26.2 24.2 14.0 47 7.2 NNW 17 26 9 14 1009.2 1009.1 0.0
01/08:30am 25.5 23.4 13.7 48 6.9 N 17 20 9 11 1009.4 1009.3 0.0
01/08:00am 25.1 22.5 13.3 48 6.9 NW 19 24 10 13 1009.7 1009.6 0.0
01/07:30am 23.9 22.0 14.3 55 5.7 NW 17 20 9 11 1009.9 1009.8 0.0
01/07:00am 21.0 21.2 16.8 77 2.6 NW 11 20 6 11 1010.5 1010.4 0.0
01/06:30am 19.1 20.5 17.8 92 0.8 NNW 7 9 4 5 1010.4 1010.3 0.0
01/06:00am 18.9 20.4 17.6 92 0.8 NE 6 7 3 4 1010.3 1010.2 0.0
01/05:30am 18.1 19.1 16.9 93 0.7 NNE 7 11 4 6 1009.6 1009.5 0.0
01/05:00am 17.8 18.7 16.7 93 0.7 WSW 7 9 4 5 1008.6 1008.5 0.0
01/04:30am 17.5 19.6 16.2 92 0.8 CALM 0 0 0 0 1008.7 1008.6 0.0
01/04:00am 17.3 19.3 16.0 92 0.8 CALM 0 0 0 0 1008.9 1008.8 0.0
01/03:30am 18.0 20.3 16.7 92 0.8 CALM 0 0 0 0 1009.1 1009.0 0.0
01/03:00am 17.8 20.0 16.5 92 0.8 CALM 0 0 0 0 1009.1 1009.0 0.0
01/02:30am 17.7 19.9 16.4 92 0.8 CALM 0 0 0 0 1009.4 1009.3 0.0
01/02:00am 18.2 19.3 17.0 93 0.7 NNE 7 7 4 4 1009.4 1009.3 0.0
01/01:30am 17.3 18.5 15.8 91 0.9 NW 4 9 2 5 1009.6 1009.5 0.0
01/01:00am 17.7 19.8 16.2 91 0.9 CALM 0 0 0 0 1010.0 1009.9 0.0
01/12:30am 18.4 20.8 17.1 92 0.8 CALM 0 0 0 0 1010.1 1010.0 0.0
01/12:00am 18.1 19.1 16.3 89 1.1 W 6 9 3 5 1010.5 1010.4 0.0
 
Date/Time
EDT
Temp
°C
App
Temp
°C
Dew
Point
Rel
Hum
%
Delta-T
°C
Wind Press
QNH
hPa
Press
MSL
hPa
Rain
since 9 am
mm
Dir
 
Spd
km/h
Gust
km/h
Spd
kts
Gust
kts
31/11:30pm 18.9 20.2 17.0 89 1.1 WNW 6 9 3 5 1010.8 1010.7 0.0
31/11:00pm 19.5 22.1 17.5 88 1.2 CALM 0 0 0 0 1010.9 1010.8 0.0
31/10:30pm 19.8 22.5 17.8 88 1.2 CALM 0 0 0 0 1011.2 1011.1 0.0
31/10:00pm 20.2 22.9 17.8 86 1.5 CALM 0 0 0 0 1011.2 1011.1 0.0
31/09:30pm 20.1 22.5 17.1 83 1.8 CALM 0 0 0 0 1011.3 1011.2 0.0
31/09:00pm 21.1 22.5 17.7 81 2.1 ENE 7 7 4 4 1011.1 1011.0 0.0
31/08:30pm 21.9 23.5 17.9 78 2.5 ENE 6 7 3 4 1010.9 1010.8 0.0
31/08:00pm 22.6 23.8 18.2 76 2.8 ENE 9 13 5 7 1010.4 1010.3 0.0
31/07:30pm 23.1 23.9 18.2 74 3.1 E 11 17 6 9 1010.2 1010.1 0.0
31/07:00pm 23.7 24.0 17.9 70 3.6 ENE 13 19 7 10 1010.2 1010.1 0.0
31/06:30pm 24.4 24.3 17.9 67 4.1 ENE 15 19 8 10 1009.8 1009.7 0.0
31/06:00pm 25.4 24.7 18.3 65 4.5 NE 19 22 10 12 1009.7 1009.6 0.0
31/05:30pm 26.3 25.3 17.9 60 5.3 NE 20 28 11 15 1009.5 1009.4 0.0
31/05:00pm 27.1 25.6 17.8 56 5.9 NE 22 30 12 16 1009.4 1009.3 0.0
31/04:30pm 27.0 24.3 17.5 56 6.0 NE 28 37 15 20 1009.3 1009.2 0.0
31/04:00pm 27.6 25.0 17.7 54 6.3 NE 28 37 15 20 1009.4 1009.3 0.0
31/03:30pm 28.0 25.3 17.5 52 6.6 ENE 28 37 15 20 1009.7 1009.6 0.0
31/03:00pm 28.2 25.4 17.4 52 6.8 ENE 28 37 15 20 1009.8 1009.7 0.0
31/02:30pm 29.3 27.3 17.5 49 7.5 ENE 24 35 13 19 1010.3 1010.2 0.0
31/02:00pm 29.2 27.1 17.1 48 7.6 ENE 24 35 13 19 1010.9 1010.8 0.0
31/01:30pm 29.5 28.3 18.3 51 7.2 E 22 32 12 17 1011.6 1011.5 0.0
31/01:00pm 29.4 27.9 18.5 52 7.0 E 24 32 13 17 1012.1 1012.0 0.0
31/12:30pm 29.8 28.4 16.9 45 8.1 E 20 30 11 16 1012.5 1012.4 0.0
31/12:00pm 29.8 28.9 16.9 45 8.1 E 17 24 9 13 1012.9 1012.9 0.0
31/11:30am 29.4 29.2 17.6 49 7.5 E 15 20 8 11 1013.5 1013.5 0.0
31/11:00am 28.4 28.0 16.3 47 7.5 E 13 19 7 10 1013.7 1013.7 0.0
31/10:30am 27.2 28.0 15.9 50 6.9 SSW 6 13 3 7 1014.3 1014.3 0.0
31/10:00am 25.7 26.2 16.5 56 5.7 ESE 9 13 5 7 1014.4 1014.4 0.0
31/09:30am 24.2 25.1 16.2 61 4.9 ESE 6 7 3 4 1014.7 1014.7 0.0
31/09:00am 22.7 23.5 16.3 67 3.9 SE 7 11 4 6 1014.8 1014.8 0.0
31/08:30am 20.4 21.1 15.6 74 2.9 W 6 9 3 5 1015.0 1015.0 0.0
31/08:00am 17.7 18.2 15.0 84 1.6 W 6 7 3 4 1015.0 1015.0 0.0
31/07:30am 15.8 17.4 14.8 94 0.6 CALM 0 0 0 0 1014.9 1014.9 0.0
31/07:00am 14.2 15.3 13.4 95 0.4 CALM 0 0 0 0 1014.8 1014.8 0.0
31/06:30am 11.8 12.1 10.9 94 0.5 CALM 0 0 0 0 1014.4 1014.4 0.0
31/06:00am 11.6 11.8 10.7 94 0.5 CALM 0 0 0 0 1014.2 1014.2 0.0
31/05:30am 12.7 13.3 11.8 94 0.5 CALM 0 0 0 0 1014.0 1014.0 0.0
31/05:00am 12.5 13.0 11.6 94 0.5 CALM 0 0 0 0 1013.8 1013.8 0.0
31/04:30am 12.9 13.5 11.8 93 0.6 CALM 0 0 0 0 1013.6 1013.6 0.0
31/04:00am 13.5 14.3 12.6 94 0.5 CALM 0 0 0 0 1013.6 1013.6 0.0
31/03:30am 13.5 14.3 12.4 93 0.6 CALM 0 0 0 0 1013.6 1013.6 0.0
31/03:00am 13.9 14.8 12.8 93 0.6 CALM 0 0 0 0 1013.7 1013.7 0.0
31/02:30am 14.0 14.8 12.7 92 0.7 CALM 0 0 0 0 1014.1 1014.1 0.0
31/02:00am 14.7 15.8 13.4 92 0.7 CALM 0 6 0 3 1014.4 1014.4 0.0
31/01:30am 14.8 15.9 13.5 92 0.7 CALM 0 0 0 0 1014.6 1014.6 0.0
31/01:00am 14.9 14.8 13.4 91 0.8 W 6 7 3 4 1014.8 1014.8 0.0
31/12:30am 15.7 16.0 14.4 92 0.7 W 6 7 3 4 1014.8 1014.8 0.0
31/12:00am 15.3 15.3 13.5 89 1.0 W 6 7 3 4 1014.9 1014.9 0.0
 
Date/Time
EDT
Temp
°C
App
Temp
°C
Dew
Point
Rel
Hum
%
Delta-T
°C
Wind Press
QNH
hPa
Press
MSL
hPa
Rain
since 9 am
mm
Dir
 
Spd
km/h
Gust
km/h
Spd
kts
Gust
kts
30/11:30pm 15.9 16.9 14.3 90 0.9 W 2 7 1 4 1014.9 1014.9 0.0
30/11:00pm 16.3 16.4 14.5 89 1.0 WSW 7 9 4 5 1014.9 1014.9 0.0
30/10:30pm 17.2 19.0 15.4 89 1.1 CALM 0 0 0 0 1014.7 1014.7 0.0
30/10:00pm 17.6 19.3 15.2 86 1.4 CALM 0 0 0 0 1014.6 1014.6 0.0
30/09:30pm 17.5 18.2 14.6 83 1.7 S 4 7 2 4 1014.6 1014.6 0.0
30/09:00pm 19.7 20.6 16.0 79 2.2 NE 6 7 3 4 1014.4 1014.4 0.0
30/08:30pm 20.4 21.1 16.0 76 2.6 ENE 7 15 4 8 1014.3 1014.3 0.0
30/08:00pm 21.0 21.0 16.2 74 2.9 ENE 11 17 6 9 1014.0 1014.0 0.0
30/07:30pm 21.5 21.0 15.8 70 3.4 ENE 13 17 7 9 1013.7 1013.7 0.0
30/07:00pm 22.1 21.3 15.0 64 4.2 ENE 13 19 7 10 1013.3 1013.3 0.0
30/06:30pm 22.7 21.6 14.3 59 4.9 E 13 19 7 10 1013.0 1013.0 0.0
30/06:00pm 23.5 21.2 14.2 56 5.5 E 19 24 10 13 1012.7 1012.7 0.0
30/05:30pm 24.5 22.8 14.6 54 5.9 ENE 17 26 9 14 1012.2 1012.1 0.0
30/05:00pm 25.7 24.5 15.1 52 6.4 ENE 15 20 8 11 1011.9 1011.8 0.0
30/04:30pm 26.9 24.9 15.0 48 7.2 ENE 19 26 10 14 1011.7 1011.6 0.0
30/04:00pm 26.8 24.3 15.2 49 7.0 E 22 30 12 16 1011.6 1011.5 0.0
30/03:30pm 27.4 24.8 14.8 46 7.6 NE 22 30 12 16 1011.7 1011.6 0.0
30/03:00pm 28.1 26.1 15.4 46 7.8 ENE 20 30 11 16 1011.8 1011.7 0.0
30/02:30pm 27.2 24.5 14.6 46 7.6 E 22 33 12 18 1012.2 1012.1 0.0
30/02:00pm 27.7 25.0 14.7 45 7.8 E 22 37 12 20 1012.7 1012.7 0.0
30/01:30pm 28.1 26.2 16.7 50 7.1 ENE 22 33 12 18 1013.0 1013.0 0.0
30/01:00pm 27.9 26.1 15.9 48 7.4 E 20 28 11 15 1013.4 1013.4 0.0
30/12:30pm 27.9 25.9 15.5 46 7.6 E 20 28 11 15 1013.9 1013.9 0.0
30/12:00pm 27.3 24.7 13.3 42 8.2 E 19 26 10 14 1014.5 1014.5 0.0
30/11:30am 27.0 25.5 14.1 45 7.7 E 15 19 8 10 1014.9 1014.9 0.0
30/11:00am 26.8 26.2 14.5 46 7.4 ENE 11 17 6 9 1015.3 1015.3 0.0
30/10:30am 25.5 24.4 12.0 43 7.7 N 9 13 5 7 1015.7 1015.7 0.0
30/10:00am 25.1 23.9 12.7 46 7.2 N 11 15 6 8 1016.1 1016.1 0.0
30/09:30am 23.8 22.8 13.4 52 6.0 N 11 17 6 9 1016.4 1016.4 0.0
30/09:00am 22.8 22.4 14.1 58 5.1 N 9 13 5 7 1016.6 1016.6 0.0
30/08:30am 20.8 19.7 13.0 61 4.4 NNW 11 17 6 9 1016.6 1016.6 0.0
30/08:00am 18.5 18.8 14.4 77 2.4 NW 6 11 3 6 1016.7 1016.7 0.0
30/07:30am 15.3 16.4 13.5 89 1.0 CALM 0 0 0 0 1016.6 1016.6 0.0
30/07:00am 13.0 13.7 12.1 94 0.5 CALM 0 0 0 0 1016.5 1016.5 0.0
30/06:30am 11.1 11.2 10.2 94 0.5 CALM 0 0 0 0 1016.5 1016.5 0.0
30/06:00am 10.0 9.8 8.9 93 0.5 CALM 0 0 0 0 1016.4 1016.4 0.0
30/05:30am 10.6 9.8 9.5 93 0.6 W 4 7 2 4 1016.2 1016.2 0.0
30/05:00am 10.4 10.2 9.2 92 0.6 CALM 0 0 0 0 1016.0 1016.0 0.0
30/04:30am 11.1 10.8 10.0 93 0.6 E 2 7 1 4 1016.0 1016.0 0.0
30/04:00am 11.0 11.0 9.8 92 0.6 CALM 0 0 0 0 1016.1 1016.1 0.0
30/03:30am 11.4 11.5 10.3 93 0.6 CALM 0 0 0 0 1016.1 1016.1 0.0
30/03:00am 11.6 11.8 10.5 93 0.6 CALM 0 0 0 0 1016.3 1016.3 0.0
30/02:30am 11.9 12.2 10.8 93 0.6 CALM 0 0 0 0 1016.6 1016.6 0.0
30/02:00am 11.5 11.6 10.1 91 0.7 CALM 0 0 0 0 1016.6 1016.6 0.0
30/01:30am 11.6 11.6 9.9 89 0.9 CALM 0 0 0 0 1016.9 1016.9 0.0
30/01:00am 12.4 12.8 11.1 92 0.7 CALM 0 0 0 0 1017.3 1017.3 0.0
30/12:30am 12.5 12.8 10.9 90 0.8 CALM 0 0 0 0 1017.6 1017.6 0.0
30/12:00am 13.2 13.6 11.4 89 1.0 CALM 0 0 0 0 1017.9 1017.9 0.0
 
Date/Time
EDT
Temp
°C
App
Temp
°C
Dew
Point
Rel
Hum
%
Delta-T
°C
Wind Press
QNH
hPa
Press
MSL
hPa
Rain
since 9 am
mm
Dir
 
Spd
km/h
Gust
km/h
Spd
kts
Gust
kts
29/11:30pm 13.2 13.4 10.7 85 1.3 CALM 0 0 0 0 1018.2 1018.2 0.0
29/11:00pm 13.3 13.6 11.0 86 1.2 CALM 0 0 0 0 1018.3 1018.3 0.0
29/10:30pm 13.8 14.2 11.1 84 1.4 CALM 0 0 0 0 1018.4 1018.4 0.0
29/10:00pm 14.2 14.6 11.4 83 1.5 CALM 0 0 0 0 1018.5 1018.5 0.0
29/09:30pm 15.0 14.9 12.0 82 1.6 NW 4 6 2 3 1018.5 1018.5 0.0
29/09:00pm 15.3 15.3 11.3 77 2.1 E 2 6 1 3 1018.2 1018.2 0.0
29/08:30pm 16.5 17.0 11.6 73 2.7 CALM 0 0 0 0 1017.9 1017.9 0.0
29/08:00pm 17.4 17.8 11.4 68 3.3 CALM 0 0 0 0 1017.6 1017.6 0.0
29/07:30pm 19.3 18.6 12.1 63 4.0 E 7 9 4 5 1017.3 1017.3 0.0
29/07:00pm 20.1 19.0 11.8 59 4.6 E 9 11 5 6 1017.0 1017.0 0.0
29/06:30pm 21.2 18.7 11.0 52 5.6 E 15 20 8 11 1016.7 1016.7 0.0
29/06:00pm 21.9 19.1 11.3 51 5.9 E 17 22 9 12 1016.2 1016.2 0.0
29/05:30pm 22.7 20.4 11.7 49 6.2 E 15 24 8 13 1015.9 1015.9 0.0
29/05:00pm 22.8 19.5 11.5 49 6.3 E 20 32 11 17 1015.6 1015.6 0.0
29/04:30pm 23.3 19.9 11.4 47 6.7 ENE 20 32 11 17 1015.4 1015.4 0.0
29/04:00pm 24.2 21.1 12.2 47 6.8 ESE 20 24 11 13 1015.6 1015.6 0.0
29/03:30pm 24.2 20.9 11.5 45 7.2 E 20 28 11 15 1015.5 1015.5 0.0
29/03:00pm 24.6 21.4 11.9 45 7.2 E 20 33 11 18 1015.6 1015.6 0.0
29/02:30pm 24.6 21.0 12.9 48 6.8 E 24 35 13 19 1015.6 1015.6 0.0

Other Formats:

Comma delimited format used in spreadsheet applications
http://www.bom.gov.au/fwo/IDN60801/IDN60801.94785.axf

JavaScript Object Notation format (JSON) in row-major order
http://www.bom.gov.au/fwo/IDN60801/IDN60801.94785.json